WetterOnline ( https://www.wetteronline.de )

Wetter aktuell Ostrava

Aktuelles Wetter: Ostrava (260m)

6-stündlich | Neueste Meldungen
Ortszeit Temperatur Wetter
Mi, 20.11. 13:00 11.0° C leicht bewölkt
Mi, 20.11. 7:00 2.9° C leicht bewölkt
Mi, 20.11. 1:00 5.6° C leicht bewölkt
Di, 19.11. 19:00 10.6° C leicht bewölkt
Di, 19.11. 13:00 15.6° C leicht bewölkt
Di, 19.11. 7:00 10.6° C leicht bewölkt
Di, 19.11. 1:00 9.1° C fast wolkenlos
Mo, 18.11. 19:00 8.7° C wolkig
Ortszeit Temperatur Wetter
Mi, 20.11. 17:30 6° C -
Mi, 20.11. 17:00 7.5° C wolkig
Mi, 20.11. 16:30 7° C -
Mi, 20.11. 16:00 9.4° C leicht bewölkt
Mi, 20.11. 15:30 9° C -
Mi, 20.11. 15:00 10.8° C leicht bewölkt
Mi, 20.11. 14:30 11° C -
Mi, 20.11. 14:00 11.5° C leicht bewölkt
Ortszeit Relative Feuchte Sichtweite
Mi, 20.11. 13:00 73% 6 km
Mi, 20.11. 7:00 94% 11 km
Mi, 20.11. 1:00 83% 20 km
Di, 19.11. 19:00 59% 20 km
Di, 19.11. 13:00 44% 45 km
Di, 19.11. 7:00 60% 30 km
Di, 19.11. 1:00 65% 30 km
Mo, 18.11. 19:00 89% 25 km
Ortszeit Relative Feuchte Sichtweite
Mi, 20.11. 17:30 93% 8 km
Mi, 20.11. 17:00 80% 8 km
Mi, 20.11. 16:30 81% 7 km
Mi, 20.11. 16:00 71% 7 km
Mi, 20.11. 15:30 76% 7 km
Mi, 20.11. 15:00 72% 7 km
Mi, 20.11. 14:30 71% 6 km
Mi, 20.11. 14:00 68% 6 km
Ortszeit Niederschlagsmenge Niederschlagsart
Mi, 20.11. 13:00 0.0 l/m2 in 6 Std. -
Mi, 20.11. 7:00 0.0 l/m2 in 12 Std. -
Mi, 20.11. 1:00 0.0 l/m2 in 6 Std. -
Di, 19.11. 19:00 0.0 l/m2 in 12 Std. -
Di, 19.11. 13:00 0.0 l/m2 in 6 Std. -
Di, 19.11. 7:00 0.0 l/m2 in 12 Std. -
Di, 19.11. 1:00 0.0 l/m2 in 6 Std. -
Mo, 18.11. 19:00 0.1 l/m2 in 12 Std. Regen
Ortszeit Niederschlagsmenge Niederschlagsart
Mi, 20.11. 17:30 keine Meldung -
Mi, 20.11. 17:00 0.0 l/m2 in 1 Std. -
Mi, 20.11. 16:30 keine Meldung -
Mi, 20.11. 16:00 0.0 l/m2 in 1 Std. -
Mi, 20.11. 15:30 keine Meldung -
Mi, 20.11. 15:00 0.0 l/m2 in 1 Std. -
Mi, 20.11. 14:30 keine Meldung -
Mi, 20.11. 14:00 0.0 l/m2 in 1 Std. -
Ortszeit Stärke Spitze Richtung
km/h Bft. km/h Grad Sektor
Mi, 20.11. 13:00 11 2 - 30° NO
Mi, 20.11. 7:00 4 1 - uml. uml.
Mi, 20.11. 1:00 4 1 - - -
Di, 19.11. 19:00 7 2 - uml. uml.
Di, 19.11. 13:00 22 4 40 190° S
Di, 19.11. 7:00 14 3 - 200° S
Di, 19.11. 1:00 11 2 - 190° S
Mo, 18.11. 19:00 7 2 43 210° SW
Ortszeit Stärke Spitze Richtung
km/h Bft. km/h Grad Sektor
Mi, 20.11. 17:30 9 2 - 30° NO
Mi, 20.11. 17:00 11 2 - 50° NO
Mi, 20.11. 16:30 15 3 - 50° NO
Mi, 20.11. 16:00 14 3 - 40° NO
Mi, 20.11. 15:30 11 2 - 20° N
Mi, 20.11. 15:00 14 3 - 30° NO
Mi, 20.11. 14:30 11 2 - 30° NO
Mi, 20.11. 14:00 14 3 - 30° NO
Ortszeit Untergrenze Bedeckung Gattung
total tief tief mittel hoch
Mi, 20.11. 13:00 3000 m 6/8 1/8 - Ac Ci
Mi, 20.11. 7:00 3900 m 7/8 2/8 - Ac Cs
Mi, 20.11. 1:00 6900 m 7/8 7/8 - - Ci
Di, 19.11. 19:00 6900 m 7/8 0/8 - - Ci
Di, 19.11. 13:00 3900 m 6/8 6/8 - As -
Di, 19.11. 7:00 3000 m 4/8 1/8 - Ac Ci
Di, 19.11. 1:00 6900 m 1/8 0/8 - - Ci
Mo, 18.11. 19:00 840 m 5/8 5/8 Sc - -
Ortszeit Bedeckungsgrad in Achtel und Wolkenuntergrenze
Mi, 20.11. 17:30 keine Wolken(unter 1500 m)
Mi, 20.11. 17:00 4(3300m) 8(6000m)
Mi, 20.11. 16:30 keine Wolken(unter 1500 m)
Mi, 20.11. 16:00 2(2400m) 7(6000m)
Mi, 20.11. 15:30 keine Wolken(unter 1500 m)
Mi, 20.11. 15:00 2(2400m) 7(6000m)
Mi, 20.11. 14:30 keine Wolken(unter 1500 m)
Mi, 20.11. 14:00 1(3000m) 6(6900m)
Ortszeit Luftdruck NN (hPa) Tendenz (hPa in 3 Std.)
Mi, 20.11. 13:00 1017 - 2,1
Mi, 20.11. 7:00 1020 - 0,4
Mi, 20.11. 1:00 1020 0,0
Di, 19.11. 19:00 1019 - 0,1
Di, 19.11. 13:00 1019 - 1,0
Di, 19.11. 7:00 1020 + 1,1
Di, 19.11. 1:00 1018 + 1,2
Mo, 18.11. 19:00 1015 + 3,5
Ortszeit Luftdruck NN (hPa) Tendenz (hPa in 3 Std.)
Mi, 20.11. 17:30 1015 keine Meldung
Mi, 20.11. 17:00 1016 0,0
Mi, 20.11. 16:30 1015 keine Meldung
Mi, 20.11. 16:00 1016 - 0,7
Mi, 20.11. 15:30 1015 keine Meldung
Mi, 20.11. 15:00 1016 - 1,6
Mi, 20.11. 14:30 1015 keine Meldung
Mi, 20.11. 14:00 1016 - 2,1
Ortszeit Schneehöhe (cm)
Mi, 20.11. 13:00 -
Mi, 20.11. 7:00 -
Mi, 20.11. 1:00 -
Di, 19.11. 19:00 -
Di, 19.11. 13:00 -
Di, 19.11. 7:00 -
Di, 19.11. 1:00 -
Mo, 18.11. 19:00 -
Ortszeit Schneehöhe (cm)
Mi, 20.11. 17:30 -
Mi, 20.11. 17:00 -
Mi, 20.11. 16:30 -
Mi, 20.11. 16:00 -
Mi, 20.11. 15:30 -
Mi, 20.11. 15:00 -
Mi, 20.11. 14:30 -
Mi, 20.11. 14:00 -
Link zu dieser Seite / Seite empfehlen

Das Wetter in ...